Palembang, Indonesia

4:25 PM WIB on April 27, 2017 (GMT +0700)
Sultan M Badaruddin Ii

Weather History for WIPP - January, 2013

Change the Weather History Date:

Sunday, January 6, 2013

  Actual Average Record
Temperature  
Mean Temperature 82 °F -  
Max Temperature 90 °F - - ()
Min Temperature 73 °F - - ()
Cooling Degree Days 16    
Growing Degree Days 32 (Base 50)    
Moisture  
Dew Point 76 °F    
Average Humidity 77    
Maximum Humidity 100    
Minimum Humidity 49    
Precipitation  
Precipitation 0.08 in - - ()
Sea Level Pressure  
Sea Level Pressure 29.77 in    
Wind  
Wind Speed 3 mph ()    
Max Wind Speed 21 mph    
Max Gust Speed -    
Visibility 4.6 miles    
Events Fog , Rain    
T = Trace of Precipitation, MM = Missing Value Source: Averaged Metar Reports

Daily Weather History Graph

Daily Weather History Graph

Search for Another Location

Airport or City:

Trip Planner

Search our weather history database for the weather conditions in past years. The results will help you decide how hot, cold, wet, or windy it might be!

Date:

Astronomy

Jan. 06, 2013 Rise Set
Actual Time 5:58 AM WIB 6:15 PM WIB
Civil Twilight 5:36 AM WIB 6:37 PM WIB
Nautical Twilight 5:09 AM WIB 7:04 PM WIB
Astronomical Twilight 4:43 AM WIB 7:30 PM WIB
Moon 12:17 AM WIB (1/6) 12:47 PM WIB (1/6)
Length of Visible Light 13h 01m
Length of Day
12h 17m
Last Quarter, 39% of the Moon is Illuminated
Jan 6
Last Quarter
Jan 12
New
Jan 19
First Quarter
Jan 27
Full
Feb 3
Last Quarter

Hourly Weather History & Observations

Time (WIB) Temp. Heat Index Dew Point Humidity Pressure Visibility Wind Dir Wind Speed Gust Speed Precip Events Conditions
1:00 AM 75 °F - 73 °F 92% 29.77 in 1 mi Calm Calm - -   Mist
4:00 AM 74 °F - 73 °F 97% 29.75 in 1 mi Calm Calm - -   Mist
5:00 AM 75.2 °F - 73.4 °F 94% 29.74 in 0.7 mi Calm Calm - N/A   Scattered Clouds
5:30 AM 75.2 °F - 75.2 °F 100% 29.74 in 0.6 mi Calm Calm - N/A Fog Fog
6:00 AM 75.2 °F - 75.2 °F 100% 29.74 in 0.2 mi Calm Calm - N/A Fog Fog
7:00 AM 75 °F - 74 °F 96% 29.79 in 0 mi Calm Calm - - Fog Partial Fog
7:30 AM 77.0 °F - 75.2 °F 94% 29.80 in 0.4 mi Calm Calm - N/A Fog Fog
8:00 AM 78.8 °F - 77.0 °F 94% 29.80 in 1.2 mi SW 3.5 mph - N/A   Partly Cloudy
8:30 AM 78.8 °F - 77.0 °F 94% 29.83 in 2.5 mi WSW 4.6 mph - N/A   Haze
9:00 AM 80.6 °F 88.1 °F 78.8 °F 94% 29.83 in 4.3 mi WNW 5.8 mph - N/A   Partly Cloudy
9:30 AM 82.4 °F 90.9 °F 77.0 °F 84% 29.83 in 6.2 mi WNW 4.6 mph - N/A   Scattered Clouds
10:00 AM 83 °F - 76 °F 75% 29.83 in 6 mi WNW 4.6 mph - -   Overcast
10:00 AM 82.4 °F 90.9 °F 77.0 °F 84% 29.83 in 6.2 mi WNW 4.6 mph - N/A   Scattered Clouds
10:30 AM 84.2 °F 94.1 °F 77.0 °F 79% 29.80 in 6.2 mi WNW 4.6 mph - N/A   Scattered Clouds
11:00 AM 84.2 °F 94.1 °F 77.0 °F 79% 29.80 in 6.2 mi West 5.8 mph - N/A   Scattered Clouds
11:30 AM 86.0 °F 96.9 °F 77.0 °F 74% 29.80 in 6.2 mi West 6.9 mph - N/A   Scattered Clouds
12:00 PM 86.0 °F 96.9 °F 77.0 °F 74% 29.80 in 6.2 mi WNW 8.1 mph - N/A   Scattered Clouds
1:00 PM 88 °F - 75 °F 57% 29.77 in 6 mi West 6.9 mph - -   Mist
1:00 PM 87.8 °F 97.6 °F 75.2 °F 66% 29.74 in 6.2 mi West 6.9 mph - N/A   Scattered Clouds
1:30 PM 89.6 °F 99.8 °F 75.2 °F 62% 29.74 in 6.2 mi West 5.8 mph - N/A   Scattered Clouds
2:00 PM 89.6 °F 99.8 °F 75.2 °F 62% 29.71 in 6.2 mi WNW 6.9 mph - N/A   Scattered Clouds
2:30 PM 89.6 °F 99.8 °F 75.2 °F 62% 29.71 in 6.2 mi West 6.9 mph - N/A   Scattered Clouds
3:00 PM 89.6 °F 98.2 °F 73.4 °F 59% 29.71 in 6.2 mi NW 4.6 mph - N/A   Scattered Clouds
3:30 PM 89.6 °F 98.2 °F 73.4 °F 59% 29.71 in 6.2 mi WNW 4.6 mph - N/A   Scattered Clouds
4:00 PM 91 °F - 74 °F 49% 29.71 in 6 mi NNE 8.1 mph - -   Partly Cloudy
4:00 PM 91.4 °F 100.1 °F 73.4 °F 55% 29.68 in 6.2 mi NNE 8.1 mph - N/A   Scattered Clouds
4:30 PM 89.6 °F 99.8 °F 75.2 °F 62% 29.71 in 6.2 mi North 5.8 mph - N/A   Scattered Clouds
5:00 PM 87.8 °F 97.6 °F 75.2 °F 66% 29.71 in 6.2 mi North 4.6 mph - N/A   Scattered Clouds
5:30 PM 87.8 °F 97.6 °F 75.2 °F 66% 29.71 in 6.2 mi North 3.5 mph - N/A   Scattered Clouds
6:00 PM 86.0 °F 96.9 °F 77.0 °F 74% 29.74 in 6.2 mi Calm Calm - N/A   Scattered Clouds
6:30 PM 84.2 °F 94.1 °F 77.0 °F 79% 29.74 in 6.2 mi Calm Calm - N/A   Scattered Clouds
7:00 PM 85 °F - 78 °F 73% 29.77 in 4 mi Calm Calm - -   Partly Cloudy
7:00 PM 84.2 °F 94.1 °F 77.0 °F 79% 29.77 in 3.7 mi Calm Calm - N/A   Scattered Clouds
8:00 PM 82.4 °F 90.9 °F 77.0 °F 84% 29.80 in 5.0 mi Calm Calm - N/A   Scattered Clouds
8:30 PM 82.4 °F 90.9 °F 77.0 °F 84% 29.80 in 5.0 mi Calm Calm - N/A   Haze
9:00 PM 78.8 °F - 71.6 °F 78% 29.83 in 6.2 mi SW 20.7 mph - N/A   Scattered Clouds
10:00 PM 77 °F - 74 °F 87% 29.83 in 6 mi Calm Calm - - Rain Light Rain